SP6RGZ-1 Weather Reports


time (UTC)temp
C
wind
direction
speed
KPH
gust
KPH
rain 1hr
cm
rain 24hr
cm
rain mn
cm
humidity
%
barometer
mb
20260505180002 22 0.0 0.0 0.00 0.00 0.00 68 985.9
20260505174502 22 0.0 0.0 0.00 0.00 0.00 63 985.8
20260505173002 24 0.0 0.0 0.00 0.00 0.00 46 985.7
20260505171502 25 0.0 0.0 0.00 0.00 0.00 39 985.6
20260505170002 25 0.0 0.0 0.00 0.00 0.00 37 985.6
20260505164502 26 0.0 0.0 0.00 0.00 0.00 33 985.6
20260505163002 26 0.0 0.0 0.00 0.00 0.00 33 985.6
20260505161502 27 0.0 0.0 0.00 0.00 0.00 32 985.7
20260505153002 27 0.0 0.0 0.00 0.00 0.00 33 985.9
20260505151502 27 0.0 0.0 0.00 0.00 0.00 33 986.0
20260505124502 29 0.0 0.0 0.00 0.00 0.00 30 986.7
20260505123002 29 0.0 0.0 0.00 0.00 0.00 30 987.0
20260505121502 30 0.0 0.0 0.00 0.00 0.00 31 987.1
20260505120002 30 0.0 0.0 0.00 0.00 0.00 31 987.1
20260505114502 30 0.0 0.0 0.00 0.00 0.00 30 987.2
20260505113003 30 0.0 0.0 0.00 0.00 0.00 31 987.3
20260505111502 28 0.0 0.0 0.00 0.00 0.00 31 987.5
20260505101503 30 0.0 0.0 0.00 0.00 0.00 33 988.0
20260505100002 28 0.0 0.0 0.00 0.00 0.00 34 988.1
20260505094502 27 0.0 0.0 0.00 0.00 0.00 36 988.3
20260505093002 28 0.0 0.0 0.00 0.00 0.00 35 988.3
20260505091502 28 0.0 0.0 0.00 0.00 0.00 35 988.5
20260505090002 27 0.0 0.0 0.00 0.00 0.00 36 988.7
20260505084502 26 0.0 0.0 0.00 0.00 0.00 40 988.9
20260505083001 25 0.0 0.0 0.00 0.00 0.00 42 989.1
20260505081503 22 0.0 0.0 0.00 0.00 0.00 49 989.2
20260505080002 22 0.0 0.0 0.00 0.00 0.00 52 989.2
20260505074502 21 0.0 0.0 0.00 0.00 0.00 52 989.4
20260505073002 21 0.0 0.0 0.00 0.00 0.00 49 989.4
20260505071502 21 0.0 0.0 0.00 0.00 0.00 48 989.4
20260505070002 22 0.0 0.0 0.00 0.00 0.00 46 989.5
20260505064502 23 0.0 0.0 0.00 0.00 0.00 48 989.6
20260505063002 23 0.0 0.0 0.00 0.00 0.00 47 989.7
20260505061502 23 0.0 0.0 0.00 0.00 0.00 48 989.8
20260505060002 23 0.0 0.0 0.00 0.00 0.00 49 990.0
20260505054502 22 0.0 0.0 0.00 0.00 0.00 50 990.1
20260505053002 21 0.0 0.0 0.00 0.00 0.00 52 990.1
20260505051502 21 0.0 0.0 0.00 0.00 0.00 54 990.3
20260505041502 18 0.0 0.0 0.00 0.00 0.00 65 990.3
20260505040002 16 0.0 0.0 0.00 0.00 0.00 73 990.4
20260505034502 15 0.0 0.0 0.00 0.00 0.00 77 990.5
20260505033002 15 0.0 0.0 0.00 0.00 0.00 77 990.5
20260505031502 16 0.0 0.0 0.00 0.00 0.00 76 990.5
20260505030002 16 0.0 0.0 0.00 0.00 0.00 75 990.7
20260505024502 16 0.0 0.0 0.00 0.00 0.00 75 990.6
20260505023002 16 0.0 0.0 0.00 0.00 0.00 74 990.8
20260505021502 16 0.0 0.0 0.00 0.00 0.00 72 991.0
20260505020002 16 0.0 0.0 0.00 0.00 0.00 72 991.0
20260505014502 16 0.0 0.0 0.00 0.00 0.00 71 991.2
20260505013002 16 0.0 0.0 0.00 0.00 0.00 70 991.2
20260505011502 16 0.0 0.0 0.00 0.00 0.00 70 991.3
20260505010002 17 0.0 0.0 0.00 0.00 0.00 69 991.3
20260505004502 16 0.0 0.0 0.00 0.00 0.00 70 991.3
20260505003002 16 0.0 0.0 0.00 0.00 0.00 70 991.5
20260505001502 16 0.0 0.0 0.00 0.00 0.00 69 991.6
20260505000002 16 0.0 0.0 0.00 0.00 0.00 69 991.6
20260504234502 17 0.0 0.0 0.00 0.00 0.00 69 991.8
20260504233002 17 0.0 0.0 0.00 0.00 0.00 69 992.0
20260504231502 17 0.0 0.0 0.00 0.00 0.00 68 992.0
20260504230002 17 0.0 0.0 0.00 0.00 0.00 68 992.0
20260504224502 17 0.0 0.0 0.00 0.00 0.00 67 992.0
20260504223003 17 0.0 0.0 0.00 0.00 0.00 67 992.2
20260504221502 18 0.0 0.0 0.00 0.00 0.00 66 992.2
20260504220002 18 0.0 0.0 0.00 0.00 0.00 64 992.3
20260504214502 18 0.0 0.0 0.00 0.00 0.00 62 992.3
20260504213002 18 0.0 0.0 0.00 0.00 0.00 62 992.2
20260504211502 19 0.0 0.0 0.00 0.00 0.00 60 992.2
20260504210002 18 0.0 0.0 0.00 0.00 0.00 61 992.2
20260504204502 18 0.0 0.0 0.00 0.00 0.00 64 992.2
20260504203002 20 0.0 0.0 0.00 0.00 0.00 60 992.2
20260504201502 20 0.0 0.0 0.00 0.00 0.00 59 992.2
20260504200002 20 0.0 0.0 0.00 0.00 0.00 57 992.1
20260504194502 20 0.0 0.0 0.00 0.00 0.00 55 992.1
20260504193002 21 0.0 0.0 0.00 0.00 0.00 55 992.2
20260504191502 21 0.0 0.0 0.00 0.00 0.00 54 992.1
20260504190002 21 0.0 0.0 0.00 0.00 0.00 52 992.0
20260504184502 21 0.0 0.0 0.00 0.00 0.00 50 991.8
20260504183002 22 0.0 0.0 0.00 0.00 0.00 47 991.8
20260504181502 23 0.0 0.0 0.00 0.00 0.00 45 991.7